Siloam Springs, AR

1:11 AM CDT on April 24, 2017 (GMT -0500)
Smith

Weather History for KSLG - November, 2013

Change the Weather History Date:

Wednesday, November 20, 2013

  Actual Average Record
Temperature  
Mean Temperature 50 °F -  
Max Temperature 57 °F 55 °F 71 °F (2007)
Min Temperature 42 °F 36 °F 24 °F (2001)
Degree Days  
Heating Degree Days 16    
Moisture  
Dew Point 26 °F    
Average Humidity 36    
Maximum Humidity 53    
Minimum Humidity 21    
Precipitation  
Precipitation 0.02 in - - ()
Sea Level Pressure  
Sea Level Pressure 30.00 in    
Wind  
Wind Speed 13 mph (SSE)    
Max Wind Speed 21 mph    
Max Gust Speed 29 mph    
Visibility 10 miles    
Events      
Averages and records for this station are not official NWS values.
T = Trace of Precipitation, MM = Missing Value Source: NWS Daily Summary

Daily Weather History Graph

Daily Weather History Graph

Search for Another Location

Airport or City:

Trip Planner

Search our weather history database for the weather conditions in past years. The results will help you decide how hot, cold, wet, or windy it might be!

Date:

Astronomy

Nov. 20, 2013 Rise Set
Actual Time 7:00 AM CST 5:06 PM CST
Civil Twilight 6:32 AM CST 5:34 PM CST
Nautical Twilight 6:01 AM CST 6:05 PM CST
Astronomical Twilight 5:30 AM CST 6:36 PM CST
Moon 7:50 PM CST (11/20) 9:25 AM CST (11/20)
Length of Visible Light 11h 02m
Length of Day
10h 06m
Waning Gibbous, 91% of the Moon is Illuminated
Nov 20
Waning Gibbous
Nov 25
Last Quarter
Dec 2
New
Dec 9
First Quarter
Dec 17
Full

Hourly Weather History & Observations

Time (CST) Temp. Windchill Dew Point Humidity Pressure Visibility Wind Dir Wind Speed Gust Speed Precip Events Conditions
12:15 AM 51.8 °F - 12.2 °F 21% 30.06 in 10.0 mi SE 15.0 mph - N/A   Overcast
12:35 AM 51.8 °F - 12.2 °F 21% 30.07 in 10.0 mi SE 11.5 mph 18.4 mph N/A   Overcast
12:55 AM 50.0 °F - 14.0 °F 24% 30.06 in 10.0 mi SE 13.8 mph 19.6 mph N/A   Overcast
1:15 AM 50.0 °F - 15.8 °F 26% 30.06 in 10.0 mi SE 11.5 mph - N/A   Overcast
1:35 AM 50.0 °F - 15.8 °F 26% 30.06 in 10.0 mi SE 8.1 mph - N/A   Overcast
1:55 AM 50.0 °F - 15.8 °F 26% 30.06 in 10.0 mi SSE 11.5 mph - N/A   Overcast
2:15 AM 50.0 °F - 14.0 °F 24% 30.06 in 10.0 mi SSE 10.4 mph - N/A   Overcast
2:35 AM 50.0 °F - 14.0 °F 24% 30.07 in 10.0 mi SSE 10.4 mph 19.6 mph N/A   Overcast
2:55 AM 46.4 °F 39.0 °F 23.0 °F 40% 30.05 in 10.0 mi SE 19.6 mph - 0.01 in   Overcast
3:15 AM 42.8 °F 35.1 °F 26.6 °F 53% 30.04 in 10.0 mi SE 16.1 mph - 0.01 in   Overcast
3:35 AM 42.8 °F 35.4 °F 26.6 °F 53% 30.03 in 10.0 mi SE 15.0 mph 23.0 mph 0.01 in   Mostly Cloudy
3:55 AM 44.6 °F 37.8 °F 24.8 °F 46% 30.02 in 10.0 mi SE 15.0 mph - 0.01 in   Overcast
4:15 AM 44.6 °F 38.1 °F 24.8 °F 46% 30.02 in 10.0 mi SE 13.8 mph 20.7 mph N/A   Overcast
4:35 AM 44.6 °F 37.2 °F 21.2 °F 39% 30.02 in 10.0 mi SE 17.3 mph 24.2 mph N/A   Overcast
4:55 AM 44.6 °F 37.8 °F 21.2 °F 39% 30.01 in 10.0 mi SE 15.0 mph 21.9 mph N/A   Overcast
5:15 AM 44.6 °F 38.8 °F 21.2 °F 39% 30.01 in 10.0 mi SE 11.5 mph 20.7 mph N/A   Overcast
5:35 AM 44.6 °F 37.4 °F 19.4 °F 37% 30.00 in 10.0 mi SE 16.1 mph - N/A   Mostly Cloudy
5:55 AM 44.6 °F 38.4 °F 19.4 °F 37% 30.00 in 10.0 mi SE 12.7 mph 19.6 mph N/A   Mostly Cloudy
6:15 AM 44.6 °F 37.8 °F 19.4 °F 37% 30.01 in 10.0 mi SE 15.0 mph 19.6 mph N/A   Overcast
6:35 AM 46.4 °F 40.7 °F 21.2 °F 37% 30.01 in 10.0 mi SE 12.7 mph - N/A   Overcast
6:55 AM 44.6 °F 38.8 °F 19.4 °F 37% 30.01 in 10.0 mi SE 11.5 mph - N/A   Overcast
7:15 AM 46.4 °F 40.1 °F 19.4 °F 34% 30.01 in 10.0 mi SE 15.0 mph - N/A   Overcast
7:35 AM 46.4 °F 40.7 °F 19.4 °F 34% 30.02 in 10.0 mi SSE 12.7 mph 19.6 mph N/A   Overcast
7:55 AM 46.4 °F 39.8 °F 21.2 °F 37% 30.02 in 10.0 mi SE 16.1 mph - N/A   Overcast
8:15 AM 46.4 °F 41.1 °F 21.2 °F 37% 30.02 in 10.0 mi SE 11.5 mph - N/A   Overcast
8:35 AM 46.4 °F 39.8 °F 21.2 °F 37% 30.02 in 10.0 mi SE 16.1 mph - N/A   Scattered Clouds
8:55 AM 46.4 °F 41.1 °F 23.0 °F 40% 30.03 in 10.0 mi SE 11.5 mph - N/A   Partly Cloudy
9:15 AM 48.2 °F - 23.0 °F 37% 30.03 in 10.0 mi SE 9.2 mph - N/A   Scattered Clouds
9:35 AM 51.8 °F - 23.0 °F 33% 30.03 in 10.0 mi SSE 12.7 mph 16.1 mph N/A   Scattered Clouds
9:55 AM 51.8 °F - 24.8 °F 35% 30.03 in 10.0 mi SSE 12.7 mph - N/A   Mostly Cloudy
10:15 AM 53.6 °F - 24.8 °F 33% 30.03 in 10.0 mi SSE 15.0 mph 18.4 mph N/A   Mostly Cloudy
10:35 AM 53.6 °F - 24.8 °F 33% 30.02 in 10.0 mi South 16.1 mph - N/A   Partly Cloudy
10:55 AM 55.4 °F - 24.8 °F 31% 30.02 in 10.0 mi South 16.1 mph - N/A   Partly Cloudy
11:15 AM 55.4 °F - 23.0 °F 29% 30.01 in 10.0 mi South 16.1 mph 26.5 mph N/A   Partly Cloudy
11:35 AM 55.4 °F - 24.8 °F 31% 30.00 in 10.0 mi South 20.7 mph 25.3 mph N/A   Clear
11:55 AM 55.4 °F - 24.8 °F 31% 29.99 in 10.0 mi SSE 19.6 mph 26.5 mph N/A   Clear
12:15 PM 55.4 °F - 24.8 °F 31% 29.98 in 10.0 mi South 18.4 mph 27.6 mph N/A   Clear
12:35 PM 55.4 °F - 26.6 °F 33% 29.97 in 10.0 mi SSE 16.1 mph 20.7 mph N/A   Scattered Clouds
12:55 PM 57.2 °F - 26.6 °F 31% 29.96 in 10.0 mi South 20.7 mph 27.6 mph N/A   Mostly Cloudy
1:15 PM 57.2 °F - 28.4 °F 33% 29.96 in 10.0 mi South 18.4 mph 28.8 mph N/A   Scattered Clouds
1:35 PM 57.2 °F - 28.4 °F 33% 29.95 in 10.0 mi South 18.4 mph - N/A   Partly Cloudy
1:55 PM 57.2 °F - 30.2 °F 36% 29.94 in 10.0 mi South 15.0 mph - N/A   Clear
2:15 PM 57.2 °F - 28.4 °F 33% 29.94 in 10.0 mi South 15.0 mph 26.5 mph N/A   Clear
2:35 PM 57.2 °F - 28.4 °F 33% 29.93 in 10.0 mi South 19.6 mph 23.0 mph N/A   Partly Cloudy
2:55 PM 57.2 °F - 28.4 °F 33% 29.92 in 10.0 mi South 16.1 mph 23.0 mph N/A   Scattered Clouds
3:15 PM 55.4 °F - 28.4 °F 36% 29.92 in 10.0 mi SSE 12.7 mph 20.7 mph N/A   Mostly Cloudy
3:35 PM 55.4 °F - 28.4 °F 36% 29.92 in 10.0 mi SSE 12.7 mph - N/A   Scattered Clouds
3:55 PM 55.4 °F - 28.4 °F 36% 29.92 in 10.0 mi SSE 12.7 mph 17.3 mph N/A   Scattered Clouds
4:15 PM 57.2 °F - 30.2 °F 36% 29.93 in 10.0 mi SE 12.7 mph - N/A   Overcast
4:35 PM 57.2 °F - 30.2 °F 36% 29.94 in 10.0 mi SSE 8.1 mph - N/A   Overcast
4:55 PM 57.2 °F - 30.2 °F 36% 29.94 in 10.0 mi SSE 8.1 mph - N/A   Overcast
5:15 PM 57.2 °F - 28.4 °F 33% 29.94 in 10.0 mi SE 9.2 mph - N/A   Overcast
5:35 PM 57.2 °F - 30.2 °F 36% 29.95 in 10.0 mi SE 9.2 mph - N/A   Overcast
5:55 PM 57.2 °F - 30.2 °F 36% 29.96 in 10.0 mi SE 9.2 mph - N/A   Overcast
6:15 PM 57.2 °F - 30.2 °F 36% 29.97 in 10.0 mi SE 5.8 mph - N/A   Overcast
6:35 PM 55.4 °F - 32.0 °F 41% 29.97 in 10.0 mi SE 5.8 mph - N/A   Overcast
6:55 PM 55.4 °F - 30.2 °F 38% 29.97 in 10.0 mi ESE 8.1 mph - N/A   Overcast
7:15 PM 55.4 °F - 30.2 °F 38% 29.96 in 10.0 mi SE 6.9 mph - N/A   Overcast
7:35 PM 57.2 °F - 30.2 °F 36% 29.97 in 10.0 mi SSE 4.6 mph - N/A   Overcast
7:55 PM 57.2 °F - 32.0 °F 38% 29.97 in 10.0 mi South 8.1 mph - N/A   Overcast
8:15 PM 57.2 °F - 33.8 °F 41% 29.98 in 10.0 mi South 8.1 mph - N/A   Overcast
8:35 PM 57.2 °F - 35.6 °F 44% 29.99 in 10.0 mi South 8.1 mph - N/A   Overcast
8:55 PM 57.2 °F - 33.8 °F 41% 30.00 in 10.0 mi South 10.4 mph - N/A   Overcast
9:15 PM 57.2 °F - 33.8 °F 41% 30.00 in 10.0 mi South 8.1 mph - N/A   Overcast
9:35 PM 57.2 °F - 33.8 °F 41% 30.00 in 10.0 mi South 5.8 mph - N/A   Overcast
9:55 PM 57.2 °F - 35.6 °F 44% 29.99 in 10.0 mi South 10.4 mph - N/A   Overcast
10:15 PM 57.2 °F - 33.8 °F 41% 30.00 in 10.0 mi South 8.1 mph - N/A   Overcast
10:35 PM 57.2 °F - 35.6 °F 44% 30.00 in 10.0 mi South 6.9 mph - N/A   Overcast
10:55 PM 55.4 °F - 35.6 °F 47% 30.00 in 10.0 mi SSE 5.8 mph - N/A   Overcast
11:15 PM 57.2 °F - 35.6 °F 44% 30.00 in 10.0 mi South 8.1 mph - N/A   Overcast
11:35 PM 57.2 °F - 35.6 °F 44% 30.01 in 10.0 mi SSE 8.1 mph - N/A   Overcast
11:55 PM 55.4 °F - 35.6 °F 47% 30.01 in 10.0 mi SSE 9.2 mph - N/A   Overcast